Location: Ponte Samoggia
(44.5667°N, 11.1333°E)
Time: 22:58:53
(UTC+00:00)

Cosmos 1269 Rocket - Pass Details

Date: 26 May 2022
Orbit: 773 x 778 km, 74.1° (Epoch: 29 June)

Event Time Altitude Azimuth Distance (km) Brightness Sun altitude
Rises 00:44:15 0° 340° (NNW) 3,259 8.0 -21.1°
Reaches altitude 10° 00:46:39 10° 342° (NNW) 2,328 7.1 -20.9°
Maximum altitude 00:51:56 77° 68° (ENE) 797 4.1 -20.5°
Enters shadow 00:55:07 25° 152° (SSE) 1,540 5.2 -20.3°
